K0LFT Weather Reports


time (UTC)temp
C
wind
direction
speed
KPH
gust
KPH
rain 1hr
cm
rain 24hr
cm
rain mn
cm
humidity
%
barometer
mb
20260906164331 22 111 6.4 11.3 0.00 0.00 0.00 94 1016.5
20260906163827 22 126 4.8 8.0 0.00 0.00 0.00 94 1016.5
20260906163323 22 76 3.2 11.3 0.00 0.00 0.00 94 1016.6
20260906162820 22 130 4.8 6.4 0.00 0.00 0.00 94 1016.5
20260906162319 22 116 3.2 16.1 0.00 0.00 0.00 94 1016.5
20260906161814 22 119 6.4 14.5 0.00 0.00 0.00 94 1016.6
20260906161314 22 92 3.2 4.8 0.00 0.00 0.00 94 1016.6
20260906160813 22 139 8.0 9.7 0.00 0.00 0.00 94 1016.5
20260906160307 22 25 6.4 6.4 0.00 0.00 0.00 94 1016.4
20260906155805 22 85 6.4 8.0 0.00 0.00 0.00 95 1016.6
20260906155259 22 108 3.2 6.4 0.00 0.00 0.00 95 1016.6
20260906154755 22 78 4.8 6.4 0.00 0.00 0.00 95 1016.6
20260906154244 22 80 0.0 9.7 0.00 0.00 0.00 96 1016.6
20260906153742 22 103 3.2 8.0 0.00 0.00 0.00 97 1016.7
20260906153238 22 150 3.2 9.7 0.00 0.00 0.00 97 1016.7
20260906152733 22 187 3.2 6.4 0.00 0.00 0.00 97 1016.8
20260906152233 21 121 6.4 8.0 0.00 0.00 0.00 98 1016.9
20260906151732 21 148 4.8 8.0 0.00 0.00 0.00 98 1017.0
20260906151228 21 110 0.0 6.4 0.00 0.00 0.00 98 1016.8
20260906150723 21 168 4.8 6.4 0.00 0.00 0.00 98 1016.6
20260906150219 21 137 6.4 6.4 0.00 0.00 0.00 99 1016.9
20260906145718 21 144 3.2 8.0 0.00 0.00 0.00 99 1017.0
20260906145217 21 77 3.2 6.4 0.00 0.00 0.00 99 1016.8
20260906144712 21 22 1.6 4.8 0.00 0.00 0.00 99 1016.8
20260906144207 21 134 3.2 6.4 0.00 0.00 0.00 99 1016.7
20260906143706 21 126 3.2 4.8 0.00 0.00 0.00 99 1016.8
20260906143203 21 168 4.8 6.4 0.00 0.00 0.00 99 1016.6
20260906142657 21 150 4.8 8.0 0.00 0.00 0.00 99 1016.6
20260906142153 21 166 1.6 8.0 0.00 0.00 0.00 99 1016.5
20260906141651 21 164 6.4 12.9 0.00 0.00 0.00 99 1016.7
20260906141146 21 117 3.2 4.8 0.00 0.00 0.00 99 1016.5
20260906140645 21 283 1.6 6.4 0.00 0.00 0.00 99 1016.6
20260906140141 21 144 6.4 6.4 0.00 0.00 0.00 99 1016.6
20260906135637 21 44 4.8 9.7 0.00 0.00 0.00 99 1016.4
20260906135134 21 107 3.2 4.8 0.00 0.00 0.00 99 1016.5
20260906134629 21 119 6.4 12.9 0.00 0.00 0.00 99 1016.5
20260906134124 21 132 0.0 6.4 0.00 0.00 0.00 99 1016.5
20260906133620 21 70 6.4 9.7 0.00 0.00 0.00 99 1016.7
20260906133115 21 89 0.0 3.2 0.00 0.00 0.00 99 1016.7
20260906132610 21 142 9.7 9.7 0.00 0.00 0.00 99 1016.6
20260906132105 20 147 4.8 6.4 0.00 0.00 0.00 99 1016.5
20260906131601 20 127 4.8 6.4 0.00 0.00 0.00 99 1016.4
20260906131056 20 117 8.0 11.3 0.00 0.00 0.00 99 1016.2
20260906130550 20 138 3.2 9.7 0.00 0.00 0.00 99 1016.3
20260906130045 20 94 4.8 9.7 0.00 0.00 0.00 99 1016.1
20260906125542 20 170 1.6 8.0 0.00 0.00 0.00 99 1016.1
20260906125037 20 70 6.4 8.0 0.00 0.00 0.00 99 1016.1
20260906124533 20 99 4.8 12.9 0.00 0.00 0.00 99 1016.0
20260906124027 20 128 6.4 11.3 0.00 0.00 0.00 99 1016.0
20260906123526 20 118 4.8 6.4 0.00 0.00 0.00 99 1016.1
20260906123021 20 141 8.0 9.7 0.00 0.00 0.00 99 1016.0
20260906122515 20 198 3.2 9.7 0.00 0.00 0.00 99 1015.7
20260906122012 20 120 4.8 8.0 0.00 0.00 0.00 99 1015.7
20260906121508 20 79 6.4 8.0 0.00 0.00 0.00 99 1015.7
20260906121004 20 108 3.2 4.8 0.00 0.00 0.00 99 1015.6
20260906120458 20 78 1.6 4.8 0.00 0.00 0.00 99 1015.5
20260906115955 20 212 3.2 6.4 0.00 0.00 0.00 99 1015.5
20260906115450 20 94 1.6 6.4 0.00 0.00 0.00 99 1015.5
20260906114949 20 107 1.6 4.8 0.00 0.00 0.00 99 1015.2
20260906114444 20 103 3.2 3.2 0.00 0.00 0.00 99 1015.4
20260906113940 20 103 4.8 6.4 0.00 0.00 0.00 99 1015.3
20260906113439 20 50 0.0 4.8 0.00 0.00 0.00 99 1015.3
20260906112934 20 124 1.6 4.8 0.00 0.00 0.00 99 1015.0
20260906112430 20 87 1.6 3.2 0.00 0.00 0.00 99 1015.2
20260906111925 20 98 0.0 4.8 0.00 0.00 0.00 99 1015.3
20260906111425 20 171 0.0 4.8 0.00 0.00 0.00 99 1014.9
20260906110920 20 121 1.6 4.8 0.00 0.00 0.00 99 1015.0
20260906110415 20 147 0.0 4.8 0.00 0.00 0.00 99 1015.0
20260906105914 20 119 3.2 3.2 0.00 0.00 0.00 99 1015.2
20260906105410 20 89 0.0 6.4 0.00 0.00 0.00 99 1015.1
20260906104906 20 161 1.6 3.2 0.00 0.00 0.00 99 1015.2
20260906104404 20 269 0.0 4.8 0.00 0.00 0.00 99 1015.1
20260906103903 20 209 0.0 8.0 0.00 0.00 0.00 99 1014.9
20260906103401 20 99 3.2 4.8 0.00 0.00 0.00 99 1015.2
20260906102858 20 93 0.0 4.8 0.00 0.00 0.00 99 1015.1
20260906102357 20 29 0.0 4.8 0.00 0.00 0.00 99 1015.1
20260906101851 20 73 0.0 4.8 0.00 0.00 0.00 99 1015.2
20260906101347 20 157 1.6 3.2 0.00 0.00 0.00 99 1015.0
20260906100842 20 85 0.0 4.8 0.00 0.00 0.00 99 1015.0
20260906100341 20 134 0.0 4.8 0.00 0.00 0.00 99 1015.1
20260906095837 20 98 3.2 6.4 0.00 0.00 0.00 99 1015.2
20260906095332 20 46 3.2 6.4 0.00 0.00 0.00 99 1015.4
20260906094831 21 104 3.2 4.8 0.00 0.00 0.00 99 1015.3
20260906094326 21 82 3.2 4.8 0.00 0.00 0.00 99 1015.5
20260906093818 20 51 0.0 3.2 0.00 0.00 0.00 99 1015.4
20260906093313 21 62 0.0 4.8 0.00 0.00 0.00 99 1015.1
20260906092807 21 53 0.0 3.2 0.00 0.00 0.00 99 1015.3
20260906092301 21 19 1.6 3.2 0.00 0.00 0.00 99 1015.2
20260906091757 21 64 0.0 3.2 0.00 0.00 0.00 99 1014.8
20260906091253 21 59 0.0 3.2 0.00 0.00 0.00 99 1015.0
20260906090750 21 76 0.0 3.2 0.00 0.00 0.00 99 1014.8
20260906090248 21 31 0.0 3.2 0.00 0.00 0.00 99 1014.9
20260906085748 21 53 0.0 3.2 0.00 0.00 0.00 99 1014.7
20260906085247 21 16 0.0 1.6 0.00 0.00 0.00 99 1014.9
20260906084742 21 119 0.0 0.0 0.00 0.00 0.00 99 1014.7
20260906084242 21 119 0.0 0.0 0.00 0.00 0.00 99 1014.8
20260906083737 21 119 0.0 1.6 0.00 0.00 0.00 99 1014.7
20260906083232 21 37 0.0 3.2 0.00 0.00 0.00 99 1014.4
20260906082727 21 57 1.6 3.2 0.00 0.00 0.00 99 1014.8
20260906082222 21 338 0.0 1.6 0.00 0.00 0.00 99 1014.7
20260906081719 21 89 0.0 1.6 0.00 0.00 0.00 99 1014.6
20260906081213 21 62 0.0 1.6 0.00 0.00 0.00 99 1014.4
20260906080710 21 117 0.0 3.2 0.00 0.00 0.00 98 1014.4
20260906080206 21 60 0.0 1.6 0.00 0.00 0.00 98 1014.6
20260906075706 21 73 0.0 1.6 0.00 0.00 0.00 98 1014.6
20260906075200 21 44 0.0 1.6 0.00 0.00 0.00 98 1015.0
20260906074655 21 52 0.0 1.6 0.00 0.00 0.00 98 1014.9
20260906074154 21 109 1.6 1.6 0.00 0.00 0.00 98 1015.0
20260906073650 21 269 0.0 3.2 0.00 0.00 0.00 98 1014.6
20260906073145 21 61 0.0 1.6 0.00 0.00 0.00 98 1014.4
20260906072640 21 358 1.6 1.6 0.00 0.00 0.00 98 1014.6
20260906072136 21 10 0.0 3.2 0.00 0.00 0.00 98 1014.2
20260906071632 21 121 4.8 4.8 0.00 0.00 0.00 98 1014.6
20260906071132 21 79 0.0 3.2 0.00 0.00 0.00 98 1014.4
20260906070629 21 131 3.2 4.8 0.00 0.00 0.00 98 1014.6
20260906070124 21 122 6.4 6.4 0.00 0.00 0.00 98 1014.8
20260906065624 21 110 1.6 3.2 0.00 0.00 0.00 98 1014.8
20260906065119 21 79 3.2 3.2 0.00 0.00 0.00 98 1014.7
20260906064615 22 109 3.2 4.8 0.00 0.00 0.00 98 1014.6
20260906064109 22 32 0.0 4.8 0.00 0.00 0.00 98 1014.6
20260906063605 22 103 3.2 6.4 0.00 0.00 0.00 98 1014.7
20260906063101 22 137 1.6 4.8 0.00 0.00 0.00 98 1014.4
20260906062556 22 159 0.0 4.8 0.00 0.00 0.00 98 1014.6
20260906062055 22 15 0.0 6.4 0.00 0.00 0.00 98 1014.6
20260906061551 22 85 3.2 4.8 0.00 0.00 0.00 98 1014.6
20260906061050 22 129 1.6 4.8 0.00 0.00 0.00 98 1014.4
20260906060547 22 37 0.0 4.8 0.00 0.00 0.00 97 1014.6
20260906060044 22 84 3.2 4.8 0.00 0.00 0.00 97 1014.2
20260906055540 22 89 0.0 4.8 0.00 0.00 0.00 97 1014.3
20260906055035 22 120 4.8 8.0 0.00 0.00 0.00 97 1014.2
20260906054535 22 118 0.0 4.8 0.00 0.00 0.00 97 1014.6
20260906054030 22 118 1.6 6.4 0.00 0.00 0.00 97 1014.3
20260906053527 22 55 3.2 9.7 0.00 0.00 0.00 97 1014.2
20260906053022 22 120 3.2 6.4 0.00 0.00 0.00 97 1014.4
20260906052518 22 79 3.2 6.4 0.00 0.00 0.00 97 1014.7
20260906052015 22 92 4.8 6.4 0.00 0.00 0.00 97 1014.4
20260906051510 22 43 1.6 8.0 0.00 0.00 0.00 97 1014.6
20260906051006 22 98 4.8 8.0 0.00 0.00 0.00 97 1014.6
20260906050500 22 136 0.0 4.8 0.00 0.00 0.00 96 1014.7
20260906045959 22 89 1.6 4.8 0.00 0.00 0.00 96 1014.6
20260906045458 22 87 3.2 4.8 0.00 0.00 0.00 96 1014.4
20260906044954 23 37 0.0 3.2 0.00 0.00 0.00 96 1014.3
20260906044449 23 159 0.0 3.2 0.00 0.00 0.00 96 1014.3
20260906043945 23 351 0.0 8.0 0.00 0.00 0.00 96 1014.3
20260906043441 23 97 3.2 4.8 0.00 0.00 0.00 96 1014.4
20260906042936 23 43 0.0 3.2 0.00 0.00 0.00 96 1014.6
20260906042435 23 3 1.6 3.2 0.00 0.00 0.00 95 1014.3
20260906041930 23 89 1.6 4.8 0.00 0.00 0.00 95 1014.6
20260906041427 23 68 1.6 4.8 0.00 0.00 0.00 95 1014.2
20260906040926 23 93 3.2 6.4 0.00 0.00 0.00 95 1014.3
20260906040421 23 51 1.6 6.4 0.00 0.00 0.00 95 1014.4
20260906035911 23 53 0.0 4.8 0.00 0.00 0.00 95 1014.2
20260906035406 23 97 4.8 4.8 0.00 0.00 0.00 95 1014.3
20260906034901 23 89 0.0 4.8 0.00 0.00 0.00 94 1014.2
20260906034356 23 98 3.2 6.4 0.00 0.00 0.00 94 1014.3
20260906033852 23 53 0.0 4.8 0.00 0.00 0.00 94 1014.2
20260906033352 23 77 4.8 6.4 0.00 0.00 0.00 94 1014.4
20260906032848 23 79 3.2 4.8 0.00 0.00 0.00 94 1014.2
20260906032344 23 76 1.6 4.8 0.00 0.00 0.00 94 1014.2
20260906031839 24 42 1.6 3.2 0.00 0.00 0.00 94 1014.0
20260906031334 24 94 3.2 4.8 0.00 0.00 0.00 93 1014.0
20260906030834 24 16 1.6 3.2 0.00 0.00 0.00 93 1014.0
20260906030329 24 41 1.6 6.4 0.00 0.00 0.00 93 1014.0
20260906025829 24 106 3.2 4.8 0.00 0.00 0.00 93 1013.8
20260906025322 24 39 3.2 6.4 0.00 0.00 0.00 93 1013.7
20260906024822 25 280 0.0 6.4 0.00 0.00 0.00 93 1013.8
20260906024316 25 39 4.8 8.0 0.00 0.00 0.00 93 1013.9
20260906023812 25 56 1.6 8.0 0.00 0.00 0.00 93 1013.7
20260906023307 25 99 3.2 6.4 0.00 0.00 0.00 94 1013.7
20260906022803 25 71 3.2 6.4 0.00 0.00 0.00 94 1013.7
20260906022257 25 97 3.2 6.4 0.00 0.00 0.00 94 1013.6
20260906021753 25 65 3.2 6.4 0.00 0.00 0.00 94 1013.5
20260906021252 25 38 4.8 8.0 0.00 0.00 0.00 94 1013.6
20260906020746 25 28 3.2 6.4 0.00 0.00 0.00 94 1013.4
20260906020241 25 28 3.2 8.0 0.00 0.00 0.00 93 1013.3
20260906015736 25 27 6.4 6.4 0.00 0.00 0.00 93 1013.2
20260906015234 25 58 1.6 11.3 0.00 0.00 0.00 93 1013.1
20260906014729 26 26 3.2 4.8 0.00 0.00 0.00 93 1013.1
20260906014224 26 101 6.4 6.4 0.00 0.00 0.00 93 1012.8
20260906013720 26 102 3.2 6.4 0.00 0.00 0.00 92 1012.8
20260906013220 26 44 4.8 9.7 0.00 0.00 0.00 92 1012.9
20260906012715 26 329 4.8 12.9 0.00 0.00 0.00 92 1012.7
20260906012210 26 86 6.4 9.7 0.00 0.00 0.00 92 1012.8
20260906011705 26 88 3.2 6.4 0.00 0.00 0.00 91 1012.7
20260906011200 27 77 3.2 8.0 0.00 0.00 0.00 91 1012.7
20260906010656 27 91 3.2 12.9 0.00 0.00 0.00 90 1012.6
20260906010152 27 44 3.2 9.7 0.00 0.00 0.00 89 1012.5
20260906005651 27 70 3.2 9.7 0.00 0.00 0.00 88 1012.4
20260906005151 27 16 0.0 8.0 0.00 0.00 0.00 87 1012.3
20260906004650 28 62 3.2 9.7 0.00 0.00 0.00 86 1012.4
20260906004145 28 53 3.2 6.4 0.00 0.00 0.00 86 1012.5
20260906003640 28 70 3.2 9.7 0.00 0.00 0.00 85 1012.5
20260906003136 28 26 3.2 6.4 0.00 0.00 0.00 84 1012.4
20260906002630 28 81 3.2 8.0 0.00 0.00 0.00 83 1012.6
20260906002125 28 97 4.8 4.8 0.00 0.00 0.00 83 1012.4
20260906001621 29 68 1.6 4.8 0.00 0.00 0.00 82 1012.1
20260906001120 29 7 0.0 4.8 0.00 0.00 0.00 81 1012.2
20260906000617 30 27 3.2 6.4 0.00 0.00 0.00 80 1012.3
20260906000112 30 94 1.6 8.0 0.00 0.00 0.00 79 1012.3
20260905235610 30 119 3.2 4.8 0.00 0.00 0.00 79 1012.1
20260905235106 30 52 3.2 6.4 0.00 0.00 0.00 80 1012.3
20260905234601 30 99 4.8 8.0 0.00 0.00 0.00 79 1012.3
20260905234056 30 114 0.0 6.4 0.00 0.00 0.00 79 1012.3
20260905233555 30 118 1.6 4.8 0.00 0.00 0.00 78 1012.4
20260905233050 30 81 3.2 8.0 0.00 0.00 0.00 78 1012.2
20260905232546 30 23 1.6 8.0 0.00 0.00 0.00 78 1012.4
20260905232041 30 75 3.2 6.4 0.00 0.00 0.00 78 1012.2
20260905231537 30 87 3.2 9.7 0.00 0.00 0.00 79 1012.1
20260905231032 30 115 3.2 9.7 0.00 0.00 0.00 78 1012.1
20260905230532 30 99 8.0 11.3 0.00 0.00 0.00 77 1011.9
20260905230030 31 10 3.2 9.7 0.00 0.00 0.00 75 1012.1
20260905225525 31 104 6.4 9.7 0.00 0.00 0.00 74 1012.3
20260905225020 31 40 3.2 6.4 0.00 0.00 0.00 74 1012.3
20260905224515 31 85 3.2 4.8 0.00 0.00 0.00 76 1012.5
20260905224014 31 14 3.2 6.4 0.00 0.00 0.00 77 1012.4
20260905223512 31 79 3.2 8.0 0.00 0.00 0.00 76 1012.2
20260905223008 30 96 3.2 9.7 0.00 0.00 0.00 76 1012.3
20260905222507 30 88 3.2 8.0 0.00 0.00 0.00 77 1012.2
20260905222002 30 126 3.2 9.7 0.00 0.00 0.00 77 1012.0
20260905221459 31 101 4.8 6.4 0.00 0.00 0.00 77 1012.2
20260905220955 31 62 6.4 8.0 0.00 0.00 0.00 76 1012.0
20260905220451 31 96 8.0 14.5 0.00 0.00 0.00 76 1012.1
20260905215950 31 106 6.4 6.4 0.00 0.00 0.00 76 1011.8
20260905215446 31 78 4.8 11.3 0.00 0.00 0.00 77 1011.5
20260905214942 31 195 3.2 12.9 0.00 0.00 0.00 76 1011.3
20260905214437 31 163 3.2 12.9 0.00 0.00 0.00 75 1011.3
20260905213937 31 69 3.2 17.7 0.00 0.00 0.00 75 1011.5
20260905213434 31 98 11.3 16.1 0.00 0.00 0.00 73 1011.4
20260905212929 31 89 3.2 9.7 0.00 0.00 0.00 72 1011.5
20260905212424 31 94 11.3 12.9 0.00 0.00 0.00 74 1011.5
20260905211922 31 99 4.8 11.3 0.00 0.00 0.00 75 1011.7
20260905211419 31 19 9.7 14.5 0.00 0.00 0.00 74 1011.7
20260905210915 31 70 6.4 17.7 0.00 0.00 0.00 74 1011.7
20260905210415 31 47 4.8 11.3 0.00 0.00 0.00 75 1011.9
20260905205914 31 72 8.0 12.9 0.00 0.00 0.00 76 1011.8
20260905205409 32 26 6.4 14.5 0.00 0.00 0.00 75 1011.6
20260905204908 32 98 8.0 9.7 0.00 0.00 0.00 74 1011.7
20260905204404 31 105 6.4 14.5 0.00 0.00 0.00 75 1012.1
20260905203903 31 130 3.2 16.1 0.00 0.00 0.00 75 1012.2
20260905203358 31 47 1.6 9.7 0.00 0.00 0.00 76 1012.2
20260905202854 31 84 3.2 11.3 0.00 0.00 0.00 77 1012.4
20260905202349 31 345 8.0 11.3 0.00 0.00 0.00 78 1012.2
20260905201844 30 45 3.2 9.7 0.00 0.00 0.00 78 1012.3
20260905201340 30 32 1.6 12.9 0.00 0.00 0.00 78 1012.5
20260905200833 30 54 3.2 12.9 0.00 0.00 0.00 78 1012.5
20260905200330 31 87 3.2 8.0 0.00 0.00 0.00 79 1012.4
20260905195828 31 58 8.0 8.0 0.00 0.00 0.00 77 1012.5
20260905195323 31 52 4.8 9.7 0.00 0.00 0.00 79 1012.6
20260905194819 31 92 16.1 16.1 0.00 0.00 0.00 78 1012.6
20260905194318 31 91 8.0 11.3 0.00 0.00 0.00 79 1012.7
20260905193818 30 21 6.4 14.5 0.00 0.00 0.00 78 1012.6
20260905193313 30 92 4.8 16.1 0.00 0.00 0.00 80 1012.8
20260905192809 30 89 8.0 16.1 0.00 0.00 0.00 79 1012.7
20260905192306 30 103 9.7 12.9 0.00 0.00 0.00 80 1012.8
20260905191803 30 103 3.2 9.7 0.00 0.00 0.00 81 1012.9
20260905191303 30 66 9.7 9.7 0.00 0.00 0.00 80 1013.1
20260905190801 30 84 4.8 16.1 0.00 0.00 0.00 80 1013.2
20260905190300 30 102 6.4 14.5 0.00 0.00 0.00 80 1013.2
20260905185759 30 10 6.4 11.3 0.00 0.00 0.00 80 1013.4
20260905185255 30 40 1.6 11.3 0.00 0.00 0.00 80 1013.4
20260905184754 30 78 4.8 9.7 0.00 0.00 0.00 80 1013.5
20260905184248 30 13 3.2 6.4 0.00 0.00 0.00 80 1013.8
20260905183746 30 43 4.8 8.0 0.00 0.00 0.00 81 1013.7
20260905183243 30 85 3.2 9.7 0.00 0.00 0.00 82 1013.7
20260905182736 30 93 9.7 9.7 0.00 0.00 0.00 81 1013.7
20260905182236 29 8 9.7 14.5 0.00 0.00 0.00 82 1013.6
20260905181731 29 29 11.3 12.9 0.00 0.00 0.00 81 1013.8
20260905181230 30 77 0.0 4.8 0.00 0.00 0.00 83 1013.9
20260905180725 29 99 4.8 8.0 0.00 0.00 0.00 83 1013.6
20260905180220 29 58 0.0 3.2 0.00 0.00 0.00 83 1013.8
20260905175715 28 52 8.0 8.0 0.00 0.00 0.00 84 1013.9
20260905175209 28 35 3.2 9.7 0.00 0.00 0.00 85 1014.0
20260905174704 28 26 4.8 6.4 0.00 0.00 0.00 84 1014.0
20260905174201 28 61 0.0 9.7 0.00 0.00 0.00 85 1014.0
20260905173657 28 28 9.7 9.7 0.00 0.00 0.00 83 1014.1
20260905173152 28 14 4.8 4.8 0.00 0.00 0.00 84 1014.1
20260905172652 28 8 4.8 12.9 0.00 0.00 0.00 84 1014.0
20260905172151 28 19 4.8 12.9 0.00 0.00 0.00 85 1013.9
20260905171647 28 77 6.4 11.3 0.00 0.00 0.00 85 1013.8
20260905171143 28 342 4.8 6.4 0.00 0.00 0.00 85 1013.7
20260905170640 28 22 4.8 9.7 0.00 0.00 0.00 85 1013.6
20260905170135 28 19 11.3 16.1 0.00 0.00 0.00 85 1013.8
20260905165629 28 8 6.4 8.0 0.00 0.00 0.00 85 1013.6
20260905165125 28 32 3.2 9.7 0.00 0.00 0.00 84 1013.6